Location: Bouillancy
(49.1149°N, 2.9308°E)
Time: 08:20:48
(UTC+00:00)

Lacrosse 4 Rocket - Pass Details

Date: 30 September 2020
Orbit: 543 x 615 km, 68.0° (Epoch: 29 October)

Event Time Altitude Azimuth Distance (km) Brightness Sun altitude
Rises 18:35:55 0° 328° (NNW) 2,722 5.5 -11.9°
Reaches altitude 10° 18:38:07 10° 332° (NNW) 1,830 4.5 -12.2°
Maximum altitude 18:42:11 62° 54° (NE) 628 1.4 -12.9°
Enters shadow 18:45:14 17° 132° (SE) 1,444 2.9 -13.4°
